Wind_Speed
65 64 71 77 77 74 69 64 58 51 46 43 40 41 40 36 35 34 32 30 26 22 8 9 6 10 11 12 14 17 12 6 3 4 2 1 3 8 11 13 17 21 23 25
70 69 67 69 74 75 72 68 63 57 52 47 41 41 39 38 37 36 35 32 30 27 22 12 9 12 11 11 14 14 17 10 6 2 1 1 1 2 5 8 12 17 18 21
75 76 68 67 70 74 75 72 68 63 57 53 47 44 42 41 40 39 35 33 28 25 25 20 16 12 11 9 12 12 17 13 11 6 3 3 1 2 3 5 7 13 15 16
78 77 74 71 68 69 73 74 70 66 60 58 55 51 50 48 44 42 38 35 31 29 26 21 17 14 10 9 9 10 14 14 15 12 6 3 2 0 2 3 5 9 12 14
79 80 78 76 74 71 71 70 71 67 63 61 62 59 56 55 49 45 40 35 31 30 27 25 23 19 10 11 5 9 11 13 18 15 11 6 4 2 2 2 3 6 10 10
84 81 80 79 77 76 69 67 68 69 67 63 65 66 62 57 53 49 48 43 37 34 31 29 28 23 14 17 13 9 11 12 17 16 15 11 8 4 4 4 5 5 8 9
88 85 82 80 80 79 74 71 69 69 67 64 64 67 66 62 59 55 52 47 43 41 38 35 32 27 19 21 19 12 14 12 12 18 17 16 13 10 7 5 2 2 5 10
93 90 87 83 81 79 79 77 74 71 70 69 66 65 63 63 60 58 56 53 50 47 42 40 37 33 26 24 25 26 16 15 13 14 22 20 19 15 13 10 7 4 1 4
97 93 90 89 86 84 81 80 78 75 74 73 71 68 67 64 61 60 58 57 54 50 45 44 42 37 33 32 27 24 24 21 18 14 21 25 24 21 17 15 13 8 5 3
101 99 95 93 91 90 87 84 82 78 77 75 73 70 67 66 63 61 59 57 55 53 51 48 46 42 38 36 33 29 29 27 19 16 17 21 24 25 22 21 19 14 11 8
104 103 100 98 96 93 92 90 86 82 79 77 75 74 72 70 67 63 61 60 57 54 52 50 49 47 43 38 37 35 30 30 27 17 17 15 19 22 26 25 24 21 18 15
106 104 103 101 99 96 94 92 90 87 83 80 78 76 77 76 73 70 66 64 62 60 58 54 50 47 47 45 40 38 34 33 30 19 20 17 14 19 21 25 26 26 22 22
106 105 103 100 100 98 96 95 92 91 89 86 84 80 79 77 77 75 74 71 68 65 63 60 57 52 48 47 45 39 38 37 36 30 26 23 20 19 20 18 21 27 29 25
103 104 104 103 101 100 98 98 96 95 93 90 88 87 84 82 80 78 78 77 75 72 69 66 62 59 55 50 47 44 43 43 41 38 33 29 25 23 21 17 19 23 26 32
100 102 103 103 103 102 100 99 99 98 97 95 92 89 87 87 85 84 82 80 79 77 76 73 68 64 61 58 53 49 47 50 46 42 40 36 28 26 25 22 19 19 22 26
94 100 104 104 105 107 107 105 102 101 101 100 98 96 93 90 89 88 86 84 82 81 80 78 75 70 66 62 59 55 54 55 53 48 48 42 36 31 28 24 22 18 16 18
84 94 102 104 105 105 105 105 105 104 104 103 100 99 97 94 93 91 90 88 85 84 83 81 80 77 73 69 65 63 59 60 58 58 54 49 43 37 33 29 25 22 18 15
70 84 94 102 106 106 103 105 106 107 107 106 104 103 102 99 98 97 95 93 90 88 87 84 82 81 79 75 72 70 66 63 63 61 60 55 50 48 40 35 30 26 22 18
62 69 81 91 99 105 106 105 105 106 108 110 110 109 108 106 104 102 99 96 95 92 91 90 86 84 83 81 77 74 72 69 68 68 65 63 58 54 50 44 38 32 28 22
60 63 71 80 88 95 103 109 109 109 110 112 114 115 114 112 109 106 105 102 99 98 95 94 92 90 87 85 84 80 78 76 75 73 71 68 65 59 56 51 45 38 36 30
59 59 62 69 78 85 91 100 107 113 111 111 113 116 116 117 116 115 112 109 106 102 101 98 97 95 94 92 89 86 84 81 80 78 76 73 70 67 59 55 52 45 42 33
62 62 63 63 64 71 80 86 92 100 109 115 117 117 118 119 120 121 120 116 113 111 108 106 103 100 99 97 95 92 89 88 85 84 82 80 78 75 70 62 57 50 45 37
58 63 66 68 68 67 68 71 77 86 93 100 109 119 121 121 124 125 124 122 120 118 116 114 111 109 106 104 102 98 95 93 92 90 88 86 84 81 78 74 68 58 55 53
50 54 58 62 67 69 72 74 76 76 79 84 91 99 107 115 122 124 124 124 125 122 121 121 119 117 116 112 109 107 102 99 98 96 94 92 88 87 83 78 72 71 64 53
45 48 51 54 57 61 65 69 73 77 81 85 87 89 92 96 102 107 114 119 123 124 126 125 124 124 123 122 116 114 112 107 104 103 101 97 96 90 87 83 77 76 72 63
46 47 49 50 52 54 56 59 64 69 75 80 83 84 86 89 93 96 98 100 103 111 120 124 126 129 129 128 123 119 117 115 112 108 106 105 101 95 93 90 85 82 78 71
Wind_Direction
220 220 222 224 226 227 228 230 233 236 236 233 231 228 229 229 223 223 226 237 249 255 248 271 283 315 342 355 353 347 335 275 266 327 91 80 47 51 48 26 34 40 52 46
219 222 222 223 226 227 228 230 233 235 236 235 233 232 232 230 228 225 230 239 245 250 258 257 296 284 300 333 358 336 331 292 264 274 320 138 258 335 43 30 24 36 49 55
219 221 221 222 223 226 227 229 230 233 234 236 233 234 234 234 230 228 229 236 241 245 253 258 270 286 282 300 337 339 329 294 269 247 245 251 119 318 8 38 15 43 45 51
221 220 220 222 223 224 225 227 228 229 230 234 237 237 237 236 233 230 227 229 237 242 245 251 257 271 267 292 324 341 331 291 271 258 225 231 150 99 26 42 11 44 55 51
220 221 220 220 222 223 224 224 227 226 228 230 235 236 237 238 240 243 244 238 239 242 245 249 253 263 272 259 293 330 331 315 277 255 248 219 231 152 111 140 68 53 70 67
219 221 221 222 222 223 224 223 223 224 226 228 232 234 235 239 241 242 244 244 243 245 248 251 256 255 262 252 266 295 324 320 294 267 247 229 228 218 140 136 106 77 83 81
219 220 221 223 223 223 223 224 223 223 225 225 228 234 238 239 241 242 245 247 247 246 243 245 250 253 245 256 256 272 297 305 292 271 249 241 224 225 202 181 157 68 84 98
217 220 222 223 224 224 224 224 224 223 224 224 226 231 235 238 240 242 244 246 247 248 250 252 250 250 242 246 248 250 267 279 280 257 249 246 239 225 222 216 197 188 138 72
217 219 221 223 223 225 225 225 225 225 225 226 228 230 232 236 239 242 244 247 248 247 247 250 250 249 248 249 248 245 246 260 272 262 241 243 243 239 223 227 219 209 215 234
216 218 220 223 224 226 226 225 225 224 227 228 229 229 232 233 235 238 240 242 244 247 247 246 249 250 248 249 253 248 243 250 256 251 250 239 244 245 239 228 226 220 225 233
217 218 219 222 225 226 228 228 227 226 225 227 229 229 230 232 234 234 236 239 239 240 243 244 245 247 246 246 247 248 244 241 245 240 247 250 260 248 247 246 232 227 227 230
217 218 220 222 223 226 229 230 230 229 226 227 228 230 231 232 232 234 234 234 236 237 237 237 239 241 242 242 239 242 243 233 231 225 239 239 239 255 254 248 244 235 232 231
219 219 221 223 224 225 227 230 231 232 230 228 229 228 231 232 233 233 234 234 234 235 235 236 235 234 235 239 239 236 238 233 229 221 223 230 232 236 251 262 251 240 236 238
221 221 221 222 224 226 227 229 231 232 232 231 230 229 229 230 233 234 234 234 234 235 234 235 234 234 231 231 234 235 229 228 229 231 225 225 226 233 234 236 252 238 231 236
222 222 223 223 225 226 228 229 230 231 232 233 232 232 230 229 230 232 233 233 234 235 236 236 235 233 232 229 227 231 228 225 228 230 234 231 220 226 228 232 228 225 222 231
224 225 224 225 225 226 227 228 230 231 232 233 234 233 233 230 230 231 232 233 233 234 234 235 236 235 234 232 228 226 224 226 226 230 231 234 228 225 231 229 229 232 222 225
227 227 227 227 228 228 228 230 230 232 233 233 234 236 235 233 232 231 233 232 233 235 235 235 235 234 232 232 231 228 224 223 227 228 226 227 232 227 224 228 225 223 224 221
230 229 229 230 229 229 230 231 232 233 234 235 234 234 235 235 233 232 231 232 232 233 236 235 236 236 234 231 229 230 226 223 224 227 228 227 227 230 230 223 224 223 218 220
232 231 232 232 232 231 231 232 232 233 235 235 235 235 235 235 235 235 235 232 233 232 232 236 234 235 236 234 230 229 227 226 224 225 226 227 228 228 227 229 232 234 228 224
234 235 234 234 234 233 233 233 233 234 234 235 236 236 236 237 237 237 238 238 234 234 232 232 233 233 234 235 233 229 228 226 226 225 226 227 229 228 228 228 233 230 225 221
238 237 236 236 237 237 237 237 237 237 236 238 238 238 238 238 238 237 236 237 237 236 234 233 230 232 232 232 234 232 228 227 227 225 226 227 228 230 228 230 230 225 229 226
237 238 240 240 239 239 239 239 240 240 240 239 239 239 239 240 240 240 239 237 237 238 236 234 232 229 230 232 232 232 231 228 226 226 226 227 227 227 229 227 226 223 227 229
235 236 239 241 243 243 242 241 241 242 242 242 242 242 240 240 240 242 242 240 238 237 237 236 235 233 228 228 231 232 230 231 228 226 226 227 227 227 229 230 227 223 221 226
235 235 236 239 242 243 245 246 247 246 244 244 244 244 243 244 243 242 242 243 242 240 238 237 236 234 235 229 227 230 230 229 229 228 226 226 227 227 226 227 229 228 226 224
233 234 236 238 240 241 241 242 244 245 247 247 245 244 243 244 244 243 243 242 242 242 240 238 237 236 235 234 229 227 228 229 228 229 228 226 226 226 227 226 228 230 229 226
240 239 239 239 239 241 244 245 246 246 247 248 248 248 248 247 246 246 245 244 242 241 239 238 237 236 236 235 233 228 227 227 227 227 227 227 225 224 223 226 228 229 229 230
Height
10873 10880 10884 10893 10906 10919 10929 10938 10944 10949 10954 10961 10968 10970 10975 10979 10985 10989 10992 10994 10998 11002 11004 11005 11006 11007 11008 11008 11008 11005 11003 11002 11003 11005 11006 11007 11007 11006 11005 11005 11005 11003 11001 10998
10859 10865 10873 10886 10897 10907 10917 10927 10934 10941 10945 10952 10959 10962 10968 10973 10978 10984 10988 10991 10995 10998 11001 11003 11004 11007 11008 11008 11007 11007 11005 11003 11003 11005 11007 11008 11009 11008 11007 11008 11008 11006 11005 11004
10843 10849 10865 10874 10882 10892 10904 10915 10923 10931 10935 10942 10950 10954 10959 10963 10969 10975 10982 10987 10991 10994 10997 11000 11003 11005 11006 11007 11006 11006 11005 11003 11003 11005 11006 11009 11010 11010 11008 11008 11009 11009 11007 11007
10830 10841 10853 10862 10871 10880 10889 10901 10913 10921 10925 10932 10940 10943 10948 10951 10959 10966 10977 10984 10988 10991 10994 10996 11000 11002 11004 11005 11006 11005 11005 11004 11003 11003 11005 11008 11010 11011 11010 11009 11010 11009 11009 11009
10814 10824 10838 10849 10856 10865 10873 10891 10903 10913 10917 10920 10926 10931 10936 10940 10951 10961 10970 10978 10984 10987 10990 10992 10995 10997 11001 11002 11004 11004 11004 11004 11003 11003 11004 11005 11008 11010 11011 11011 11011 11010 11009 11011
10799 10810 10823 10833 10843 10851 10866 10879 10891 10900 10905 10908 10912 10916 10925 10934 10944 10952 10957 10969 10976 10980 10985 10988 10990 10994 10997 10999 11001 11002 11002 11002 11002 11002 11004 11004 11006 11008 11010 11012 11012 11010 11010 11011
10784 10795 10807 10819 10828 10841 10854 10864 10877 10888 10896 10898 10901 10906 10916 10925 10934 10943 10948 10958 10968 10971 10976 10980 10983 10987 10993 10996 10998 11000 11001 11000 11000 11000 11001 11004 11004 11006 11008 11010 11012 11012 11011 11011
10766 10777 10791 10804 10815 10827 10838 10850 10861 10873 10882 10886 10890 10899 10906 10915 10924 10934 10940 10947 10957 10964 10969 10974 10978 10981 10986 10989 10992 10996 10999 10998 10999 10999 11000 11001 11003 11004 11006 11009 11010 11012 11013 11012
10749 10762 10774 10786 10798 10807 10823 10835 10847 10858 10866 10874 10883 10891 10897 10906 10914 10923 10931 10937 10945 10952 10960 10965 10969 10974 10979 10981 10985 10990 10994 10996 10997 10997 10998 10998 11001 11003 11003 11006 11008 11009 11011 11013
10728 10742 10756 10768 10780 10789 10803 10816 10829 10844 10851 10864 10873 10882 10891 10897 10904 10911 10918 10925 10932 10939 10947 10954 10958 10965 10971 10975 10979 10983 10986 10991 10993 10994 10995 10996 10996 10999 11000 11002 11005 11007 11009 11012
10708 10723 10738 10749 10761 10774 10786 10799 10812 10828 10840 10849 10859 10869 10877 10885 10891 10900 10908 10913 10921 10927 10933 10940 10947 10953 10960 10967 10970 10974 10979 10984 10987 10989 10990 10991 10993 10993 10996 10999 11000 11002 11005 11009
10691 10706 10720 10732 10745 10758 10770 10782 10796 10809 10825 10836 10843 10853 10860 10868 10878 10885 10894 10900 10906 10913 10919 10927 10934 10942 10949 10955 10960 10964 10970 10975 10979 10983 10984 10985 10988 10990 10991 10994 10997 10998 11000 11004
10675 10692 10705 10719 10729 10742 10754 10766 10778 10790 10803 10818 10826 10839 10845 10853 10861 10871 10877 10884 10891 10899 10906 10914 10922 10930 10937 10944 10950 10956 10961 10966 10971 10973 10977 10980 10981 10983 10986 10989 10990 10993 10997 10999
10659 10673 10687 10700 10712 10724 10735 10746 10757 10768 10779 10795 10805 10816 10828 10837 10844 10852 10860 10868 10876 10884 10892 10900 10910 10918 10925 10933 10939 10947 10952 10956 10961 10965 10969 10973 10975 10978 10980 10982 10985 10986 10989 10993
10644 10657 10671 10684 10695 10705 10715 10726 10737 10749 10759 10769 10786 10795 10808 10818 10827 10832 10841 10851 10859 10868 10876 10885 10896 10905 10913 10921 10927 10935 10942 10946 10951 10957 10962 10966 10968 10973 10975 10977 10978 10980 10981 10985
10627 10639 10649 10660 10671 10681 10692 10705 10717 10727 10738 10749 10759 10771 10782 10796 10808 10816 10824 10832 10841 10850 10859 10868 10879 10890 10900 10908 10916 10921 10929 10935 10941 10946 10952 10957 10961 10965 10970 10972 10974 10977 10977 10978
10609 10620 10631 10643 10653 10664 10677 10690 10700 10708 10714 10726 10741 10750 10761 10774 10786 10796 10804 10814 10824 10832 10841 10849 10860 10871 10882 10892 10901 10908 10914 10921 10928 10933 10940 10945 10952 10957 10961 10965 10968 10970 10972 10973
10592 10601 10612 10623 10633 10645 10661 10668 10679 10688 10696 10704 10717 10725 10733 10745 10758 10769 10779 10791 10804 10815 10821 10832 10842 10851 10862 10874 10883 10893 10901 10907 10914 10921 10929 10936 10941 10947 10952 10957 10959 10962 10966 10969
10578 10584 10592 10602 10612 10627 10636 10646 10655 10662 10671 10678 10690 10700 10709 10719 10732 10743 10756 10772 10782 10794 10804 10811 10824 10832 10841 10852 10865 10875 10885 10894 10900 10905 10912 10919 10927 10934 10941 10946 10951 10955 10959 10962
10564 10570 10576 10583 10592 10603 10612 10622 10630 10637 10645 10650 10662 10673 10685 10698 10713 10725 10735 10747 10760 10771 10783 10792 10801 10812 10822 10830 10841 10855 10865 10875 10882 10890 10897 10906 10914 10922 10928 10935 10942 10946 10951 10953
10549 10554 10560 10567 10575 10583 10591 10600 10609 10617 10628 10634 10642 10651 10660 10670 10682 10692 10706 10718 10731 10745 10756 10767 10780 10790 10799 10809 10818 10831 10844 10855 10865 10873 10882 10892 10901 10909 10917 10924 10930 10935 10941 10945
10534 10539 10544 10550 10556 10562 10569 10578 10585 10592 10600 10606 10614 10622 10632 10643 10650 10660 10673 10690 10702 10713 10726 10738 10752 10767 10777 10786 10795 10807 10819 10832 10844 10854 10864 10874 10883 10891 10898 10908 10915 10923 10930 10935
10519 10524 10528 10532 10537 10543 10549 10556 10561 10566 10572 10577 10584 10591 10599 10609 10619 10627 10641 10654 10670 10683 10693 10707 10724 10735 10749 10762 10772 10782 10794 10806 10820 10832 10842 10853 10864 10874 10885 10893 10902 10909 10915 10922
10504 10508 10512 10516 10519 10525 10529 10534 10538 10544 10547 10551 10556 10562 10569 10577 10587 10598 10608 10619 10632 10648 10661 10672 10687 10701 10713 10730 10746 10755 10768 10781 10793 10806 10819 10831 10844 10855 10866 10877 10886 10896 10904 10910
10490 10494 10498 10501 10503 10505 10508 10511 10514 10516 10518 10522 10528 10534 10540 10544 10547 10558 10567 10582 10594 10607 10621 10637 10651 10663 10676 10687 10713 10726 10738 10752 10768 10780 10793 10807 10820 10835 10848 10860 10868 10877 10888 10898
10477 10480 10483 10486 10488 10490 10492 10494 10495 10497 10497 10499 10502 10508 10513 10519 10523 10529 10537 10547 10556 10563 10575 10594 10612 10626 10635 10648 10671 10693 10708 10723 10739 10754 10768 10780 10794 10809 10825 10838 10848 10858 10870 10880